{"data":{"norad_id":58154,"epoch":"2026-05-24T17:10:20.699040Z","epoch_age_seconds":93406,"freshness":"FRESH","line1":"1 58154U 23166E   26144.71551735  .00000299  00000+0  22226-4 0  9999","line2":"2 58154  53.1604 226.6472 0001128  75.7948 284.3178 15.30193147144663","mean_motion":15.30193147,"eccentricity":0.0001128,"inclination_deg":53.1604,"raan_deg":226.6472,"arg_perigee_deg":75.7948,"mean_anomaly_deg":284.3178,"bstar":2.2226e-5,"rev_number":14466,"period_min":94.105767159079,"perigee_km":474.4624708969,"apogee_km":476.00859173996,"semimajor_km":6853.3725313184,"source":"CELESTRAK","updated_at":"2026-05-25T13:38:18.536784Z"}}